Regional Weather Roundup
Issued by NWS

Home | Current Version | Previous Version | Text Only | Print | Product List | Glossary On
Versions: 1 2 3 4 5 6 7 8 9 10 11 12 13 14 15 16 17 18 19 20 21 22 23 24 25 26 27 28 29 30 31 32 33 34 35 36 37 38 39 40 41 42 43 44 45 46 47 48 49 50
000
ASUS43 KMPX 200401
RWRMN
WEATHER ROUNDUP FOR MINNESOTA
NATIONAL WEATHER SERVICE TWIN CITIES/CHANHASSEN MN
1100 PM CDT TUE SEP 19 2017


NOTE: "FAIR" INDICATES FEW OR NO CLOUDS BELOW 12,000 FEET WITH NO
SIGNIFICANT WEATHER AND/OR OBSTRUCTIONS TO VISIBILITY. N/A MEANS
CURRENT SKY AND/OR WEATHER CONDITIONS ARE NOT AVAILABLE.

MNZ060>063-068>070-200500-
   Twin Cities Metro

CITY           SKY/WX    TMP DP  RH WIND       PRES   REMARKS
TWIN CITIES    MOCLDY    72  64  76 SE14      29.67R
ST PAUL        MOCLDY    72  64  76 SE16G26   29.67S
CRYSTAL        MOCLDY    72  60  66 S18G25    29.65R
BLAINE         MOCLDY    75  63  64 SE16G31   29.66R
LAKEVILLE      CLEAR     70  63  78 SE14G21   29.66S
EDEN PRAIRIE   MOCLDY    73  63  70 SE17G24   29.64R
SOUTH ST PAUL  CLOUDY    72  62  70 SE15      29.67R
LAKE ELMO      MOCLDY    72  63  73 SE16G24   29.70R
$$
MNZ001>005-007-008-013>017-022>024-027-028-200500-
   Northwest Minnesota

CITY           SKY/WX    TMP DP  RH WIND       PRES   REMARKS
BEMIDJI        CLOUDY    64  62  92 SE20G28   29.51F
HALLOCK        LGT RAIN  64  64 100 E26G37    29.40R
ROSEAU         LGT RAIN  63  57  82 E5        29.52F
WARROAD        TSTM      64  61  88 SE16      29.53F
THIEF RVR FALL TSTM      61  61 100 W9        29.49R
CROOKSTON      RAIN      61  61 100 E8        29.45F
FOSSTON        CLOUDY    66  64  94 SW12G25   29.48R THUNDER
DETROIT LAKES  TSTM      68  64  88 SE23G37   29.44F
MOORHEAD       TSTM      63  61  94 N12G17    29.50R
PARK RAPIDS    CLOUDY    70  63  78 SE30G37   29.52F THUNDER
MAHNOMEN       CLOUDY    70  63  79 SW16G30   29.49R THUNDER
$$
MNZ006-009>011-018-025>026-200500-
   North Central Minnesota

CITY           SKY/WX    TMP DP  RH WIND       PRES   REMARKS
BAUDETTE       LGT RAIN  65  60  84 SE18G26   29.56F
FLAG ISLAND    CLOUDY    63  61  94 E12G17    29.56F
INTL FALLS     CLOUDY    62  55  77 SE12      29.67F
WASKISH        CLOUDY    64  61  88 E16G26    29.56F
BIG FORK       CLOUDY    64  57  77 SE10G17   29.65F
LONGVILLE      CLOUDY    64  61  88 SE9       29.58F
GRAND RAPIDS   CLOUDY    62  58  86 SE13      29.67F
CRANE LAKE     CLOUDY    57  54  88 CALM      29.74F
ORR            CLOUDY    61  54  77 SE8G17    29.68F
COOK           CLOUDY    61  55  82 SE6       29.73S
WALKER         CLOUDY    68  61  79 SE14G24   29.53F
$$
MNZ012-019>021-037-200500-
   Northeast Minnesota

CITY           SKY/WX    TMP DP  RH WIND       PRES   REMARKS
DULUTH         CLEAR     61  58  90 E15       29.76R
ELY            CLOUDY    59  54  82 SE10      29.77S
HIBBING        CLOUDY    63  56  78 SE15      29.71S
EVELETH        CLOUDY    63  57  82 SE9       29.75R
DULUTH HARBOR  PTCLDY    63  61  94 NE15      29.75R
TWO HARBORS    PTCLDY    66  61  82 E9        29.76S
SILVER BAY     CLOUDY    63  57  82 E7        29.78S
$$
MNZ029>031-032-039>041-046>048-054>057-064-200500-
   West Central Minnesota

CITY           SKY/WX    TMP DP  RH WIND       PRES   REMARKS
FERGUS FALLS   CLOUDY    73  64  73 SE25G35   29.40F
WHEATON        TSTM      72  66  83 S18G28    29.43R
MORRIS         CLOUDY    73  66  78 SE23G32   29.43F
ALEXANDRIA     CLOUDY    72  64  76 SE23G31   29.51F
ELBOW LAKE     MOCLDY    72  65  79 E21G33    29.45F
WADENA         CLOUDY    70  63  78 SE21      29.51F
GLENWOOD       CLOUDY    72  64  78 SE26G33   29.51F
APPLETON       CLOUDY    75  64  69 SE13G24   29.45S
BENSON         CLOUDY    73  64  73 S23       29.48F
ORTONVILLE     CLOUDY    73  66  78 N15G28    29.42S
MADISON        CLOUDY    75  68  78 SE16G23   29.45R
WILLMAR        MOCLDY    72  66  83 SE17      29.51F
$$
MNZ033>034-036-042>043-049>051-058-059-200500-
   Central Minnesota

CITY           SKY/WX    TMP DP  RH WIND       PRES   REMARKS
ST CLOUD       CLOUDY    72  63  73 SE18G29   29.60F
SAUK CENTRE    CLOUDY    71  63  76 SE23G31   29.53F
PAYNESVILLE    CLOUDY    72  64  77 SE14G20   29.57F
AITKIN         CLOUDY    68  61  77 SE15G23   29.63F
PINE RIVER     CLOUDY    66  59  77 SE16G26   29.61F
BRAINERD       CLOUDY    70  61  73 SE15G24   29.59F
STAPLES        CLOUDY    70  61  73 SE13G22   29.54F
LONG PRAIRIE   CLOUDY    70  61  73 E22G30    29.54F
LITTLE FALLS   CLOUDY    70  55  60 SE14G25   29.59F
LITCHFIELD     CLOUDY    73  64  73 SE15G24   29.57F
BUFFALO        MOCLDY    73  61  66 SE15G22   29.63F
MAPLE LAKE     CLOUDY    72  64  74 SE12G20   29.61F
HUTCHINSON     CLOUDY    72  65  80 SE16G23   29.59F
$$
MNZ037-044-045-052-053-200500-
   East Central Minnesota

CITY           SKY/WX    TMP DP  RH WIND       PRES   REMARKS
PRINCETON      PTCLDY    73  63  68 SE14G20   29.64F
MORA           PTCLDY    70  61  73 SE12G21   29.69S
RUSH CITY      CLOUDY    71  61  71 SE14G24   29.68R
MOOSE LAKE     CLOUDY    64  59  82 SE5       29.69R
HINCKLEY       FAIR      70  63  78 SE8       29.70R
CLOQUET        CLEAR     61  55  82 E7        29.74R
MCGREGOR       CLOUDY    63  59  88 SE9       29.67F
$$
MNZ071>073-080-081-089-090-097-098-200500-
   Southwest Minnesota

CITY           SKY/WX    TMP DP  RH WIND       PRES   REMARKS
MONTEVIDEO     CLOUDY    72  66  83 S16G23    29.48R
GRANITE FALLS  CLOUDY    74  67  80 SE18      29.49F
CANBY          CLOUDY    76  66  72 SE20G26   29.44F
MARSHALL       CLOUDY    75  67  76 S24G33    29.46F
REDWOOD FALLS  CLOUDY    73  65  75 SE23G35   29.51F
OLIVIA         CLOUDY    72  64  78 SE21G28   29.51F
PIPESTONE      CLOUDY    75  66  73 S24G32    29.48S
WORTHINGTON    CLOUDY    73  66  78 SE20G33   29.52F
JACKSON        CLOUDY    72  64  78 SE18G30   29.57F
TRACY          CLOUDY    74  69  82 S20G28    29.50S
SLAYTON        MOCLDY    73  66  77 SE21G30   29.52F
$$
MNZ065>067-074>077-082>085-091>093-200500-
   South Central Minnesota

CITY           SKY/WX    TMP DP  RH WIND       PRES   REMARKS
MANKATO        CLOUDY    72  64  76 SE21G29   29.60F
NEW ULM        CLOUDY    72  64  78 SE20G28   29.57F
ST JAMES       CLOUDY    72  64  78 SE23G31   29.57F
FAIRMONT       PTCLDY    72  66  81 S23G35    29.58F
GLENCOE        CLOUDY    73  67  81 SE14G30   29.60F
FARIBAULT      CLOUDY    72  63  73 SE15G29   29.66F
OWATONNA       CLOUDY    72  63  73 SE24G31   29.66F
WASECA         CLEAR     72  64  78 SE15G22   29.66F
ALBERT LEA     CLEAR     73  64  73 S17G31    29.69F
$$
MNZ078>079-086>088-094>096-200500-
   Southeast Minnesota

CITY           SKY/WX    TMP DP  RH WIND       PRES   REMARKS
ROCHESTER      CLEAR     68  63  84 SE22G29   29.73F
RED WING       PTCLDY    72  61  68 SE15G24   29.69F
STANTON        CLOUDY    72  63  73 SE21G32   29.64F
DODGE CENTER   CLOUDY    68  63  83 SE16G24   29.71F
WINONA         MOCLDY    70  61  73 SE10      29.77F
AUSTIN         PTCLDY    70  63  78 SE14G26   29.71F
PRESTON        CLEAR     67  61  81 SE17      29.77F
$$
ABBREVIATIONS USED IN REMARKS
   TC - TEMPERATURES IN CELSIUS
  WCI - WIND CHILL INDEX
   HX - HEAT INDEX
  VSB - VISIBILITY
$$




USA.gov is the U.S. government's official web portal to all federal, state and local government web resources and services.